Location: Bois de la Silve
(44.4667°N, 6.7833°E)
Time: 08:50:29
(UTC+00:00)

CENTAUR R/B - Pass Details

Date: 14 July 2020
Orbit: 756 x 1432 km, 63.5° (Epoch: 11 August)

Event Time Altitude Azimuth Distance (km) Brightness Sun altitude
Exits shadow 03:08:53 - 190° (S) 3,103 4.7 -8.4°
Reaches altitude 10° 03:10:37 10° 184° (S) 2,485 4.2 -8.1°
Maximum altitude 03:16:00 42° 115° (ESE) 1,322 3.5 -7.4°
Drops below altitude 10° 03:22:16 10° 47° (NE) 2,906 6.8 -6.6°
Sets 03:25:17 0° 41° (NE) 3,979 7.9 -6.1°
